Quincy, IL

6:57 PM CDT on September 20, 2019 (GMT -0500)
Quincy Regional-Baldwin

Weather History for KUIN - July, 2019

Change the Weather History Date:

Tuesday, July 23, 2019

  Actual Average Record
Temperature  
Mean Temperature 71 °F 76 °F  
Max Temperature 83 °F 86 °F 112 °F (1934)
Min Temperature 58 °F 66 °F 53 °F (1947)
Degree Days  
Heating Degree Days 0 0  
Month to date heating degree days 0 0  
Since 1 June heating degree days 5 16  
Since 1 July heating degree days 0 0  
Cooling Degree Days 6 11  
Month to date cooling degree days 350 253  
Year to date cooling degree days 697 566  
Since 1 June cooling degree days 587 480  
Growing Degree Days 19 (Base 50)    
Moisture  
Dew Point 56 °F    
Average Humidity 63    
Maximum Humidity 87    
Minimum Humidity 39    
Precipitation  
Precipitation 0.00 in 0.13 in 1.23 in (1981)
Month to date precipitation 1.12 3.07  
Year to date precipitation 24.52 21.15  
Sea Level Pressure  
Sea Level Pressure 30.16 in    
Wind  
Wind Speed 8 mph (NNW)    
Max Wind Speed 16 mph    
Max Gust Speed 22 mph    
Visibility 10 miles    
Events      
T = Trace of Precipitation, MM = Missing Value Source: NWS Daily Summary

Daily Weather History Graph

Daily Weather History Graph

Search for Another Location

Airport or City:

Astronomy

Jul. 23, 2019 Rise Set
Actual Time 5:55 AM CDT 8:26 PM CDT
Civil Twilight 5:23 AM CDT 8:57 PM CDT
Nautical Twilight 4:45 AM CDT 9:36 PM CDT
Astronomical Twilight 4:01 AM CDT 10:19 PM CDT
Moon No Moon Rise 12:08 PM CDT (7/23)
Length of Visible Light 15h 34m
Length of Day
14h 31m
Waning Gibbous, 63% of the Moon is Illuminated
Jul 23
Waning Gibbous
Jul 24
Last Quarter
Jul 31
New
Aug 7
First Quarter
Aug 15
Full

Hourly Weather History & Observations

Time (CDT) Temp. Heat Index Dew Point Humidity Pressure Visibility Wind Dir Wind Speed Gust Speed Precip Events Conditions
12:54 AM 64.0 °F - 57.9 °F 80% 30.14 in 10.0 mi North 5.8 mph - N/A   Clear
1:54 AM 64.0 °F - 57.0 °F 78% 30.15 in 10.0 mi North 8.1 mph - N/A   Clear
2:54 AM 62.1 °F - 55.9 °F 80% 30.16 in 10.0 mi North 5.8 mph - N/A   Clear
3:54 AM 60.1 °F - 55.0 °F 83% 30.16 in 10.0 mi North 3.5 mph - N/A   Clear
4:54 AM 59.0 °F - 54.0 °F 83% 30.17 in 10.0 mi NNW 5.8 mph - N/A   Clear
5:54 AM 57.9 °F - 54.0 °F 87% 30.17 in 10.0 mi NW 5.8 mph - N/A   Clear
6:54 AM 59.0 °F - 55.9 °F 90% 30.19 in 10.0 mi Calm Calm - N/A   Clear
7:54 AM 64.0 °F - 57.9 °F 80% 30.20 in 10.0 mi NW 5.8 mph - N/A   Clear
8:54 AM 70.0 °F - 57.0 °F 63% 30.20 in 10.0 mi North 8.1 mph - N/A   Clear
9:54 AM 73.9 °F - 57.0 °F 55% 30.20 in 10.0 mi North 10.4 mph - N/A   Clear
10:54 AM 77.0 °F - 55.0 °F 47% 30.19 in 10.0 mi North 12.7 mph 19.6 mph N/A   Clear
11:54 AM 78.1 °F - 52.0 °F 40% 30.19 in 10.0 mi North 12.7 mph - N/A   Partly Cloudy
12:54 PM 79.0 °F - 52.0 °F 39% 30.18 in 10.0 mi NNW 13.8 mph 20.7 mph N/A   Partly Cloudy
1:54 PM 81.0 °F 80.4 °F 53.1 °F 38% 30.16 in 10.0 mi NNW 11.5 mph 19.6 mph N/A   Partly Cloudy
2:54 PM 81.0 °F 80.4 °F 53.1 °F 38% 30.15 in 10.0 mi North 11.5 mph 20.7 mph N/A   Partly Cloudy
3:54 PM 81.0 °F 80.7 °F 55.0 °F 41% 30.14 in 10.0 mi NNW 10.4 mph - N/A   Scattered Clouds
4:54 PM 81.0 °F 80.7 °F 55.0 °F 41% 30.13 in 10.0 mi WNW 12.7 mph - N/A   Partly Cloudy
5:54 PM 81.0 °F 81.0 °F 57.0 °F 44% 30.12 in 10.0 mi NNW 9.2 mph - N/A   Partly Cloudy
6:54 PM 79.0 °F - 57.9 °F 48% 30.11 in 10.0 mi NNW 9.2 mph - N/A   Clear
7:54 PM 75.0 °F - 59.0 °F 57% 30.11 in 10.0 mi NNW 6.9 mph - N/A   Clear
8:54 PM 71.1 °F - 59.0 °F 66% 30.12 in 10.0 mi NW 5.8 mph - N/A   Clear
9:54 PM 70.0 °F - 59.0 °F 68% 30.13 in 10.0 mi NW 6.9 mph - N/A   Clear
10:54 PM 66.9 °F - 60.1 °F 79% 30.13 in 10.0 mi WNW 5.8 mph - N/A   Clear
11:54 PM 66.9 °F - 60.1 °F 79% 30.14 in 10.0 mi NW 5.8 mph - N/A   Mostly Cloudy